Location: Ago
(8.4667°N, 4.4167°E)
Time: 07:47:58
(UTC+00:00)

Cosmos 1743 - Pass Details

Date: 06 June 2020
Orbit: 510 x 527 km, 82.6° (Epoch: 05 July)

Event Time Altitude Azimuth Distance (km) Brightness Sun altitude
Rises 18:45:41 0° 5° (N) 2,606 6.6 -11.3°
Reaches altitude 10° 18:47:51 10° 11° (N) 1,723 5.5 -11.8°
Maximum altitude 18:51:30 47° 86° (E) 682 2.9 -12.6°
Enters shadow 18:54:36 14° 158° (SSE) 1,510 4.6 -13.3°
